H1 CPF 2 NER 2025 10 23 9 296 01 glonass141 H2 1908801 9141 44850 2025 10 23 0 0 0 2025 10 26 23 45 0 900 1 1 0 0 0 1 H9 10 0 60971 0.00000 0 17780752.902 10548117.255 -14934673.755 10 0 60971 900.00000 0 19023477.849 11699365.208 -12323917.850 10 0 60971 1800.00000 0 20107648.918 12520450.266 -9473753.607 10 0 60971 2700.00000 0 20974402.611 13023734.943 -6439616.968 10 0 60971 3600.00000 0 21570608.108 13233764.554 -3280473.776 10 0 60971 4500.00000 0 21851180.866 13185981.971 -57670.902 10 0 60971 5400.00000 0 21781074.279 12924995.183 3166255.729 10 0 60971 6300.00000 0 21336866.059 12502472.318 6328792.826 10 0 60971 7200.00000 0 20507873.236 11974754.067 9368657.528 10 0 60971 8100.00000 0 19296749.496 11400284.907 12226978.138 10 0 60971 9000.00000 0 17719540.233 10836971.657 14848425.369 10 0 60971 9900.00000 0 15805193.218 10339580.493 17182272.929 10 0 60971 10800.00000 0 13594545.301 9957281.501 19183367.897 10 0 60971 11700.00000 0 11138826.961 9731443.331 20812993.279 10 0 60971 12600.00000 0 8497746.216 9693769.906 22039607.213 10 0 60971 13500.00000 0 5737230.406 9864856.743 22839445.725 10 0 60971 14400.00000 0 2926918.102 10253227.068 23196978.322 10 0 60971 15300.00000 0 137503.536 10854888.161 23105208.254 10 0 60971 16200.00000 0 -2561958.190 11653426.932 22565811.935 10 0 60971 17100.00000 0 -5106675.190 12620641.667 21589114.613 10 0 60971 18000.00000 0 -7438564.935 13717684.782 20193902.129 10 0 60971 18900.00000 0 -9508422.271 14896670.257 18407071.362 10 0 60971 19800.00000 0 -11277720.180 16102680.096 16263124.770 10 0 60971 20700.00000 0 -12719968.886 17276087.173 13803517.291 10 0 60971 21600.00000 0 -13821576.806 18355098.264 11075866.732 10 0 60971 22500.00000 0 -14582177.250 19278411.238 8133041.516 10 0 60971 23400.00000 0 -15014406.869 19987874.846 5032142.444 10 0 60971 24300.00000 0 -15143144.762 20431038.836 1833397.488 10 0 60971 25200.00000 0 -15004243.967 20563485.921 -1401009.148 10 0 60971 26100.00000 0 -14642808.681 20350845.881 -4608150.689 10 0 60971 27000.00000 0 -14111090.121 19770405.019 -7725589.904 10 0 60971 27900.00000 0 -13466090.449 18812241.129 -10692604.747 10 0 60971 28800.00000 0 -12766976.951 17479834.119 -13451382.398 10 0 60971 29700.00000 0 -12072416.927 15790124.762 -15948157.232 10 0 60971 30600.00000 0 -11437947.364 13773017.526 -18134269.335 10 0 60971 31500.00000 0 -10913491.886 11470347.291 -19967121.900 10 0 60971 32400.00000 0 -10541131.262 8934352.478 -21411018.077 10 0 60971 33300.00000 0 -10353222.637 6225718.234 -22437860.517 10 0 60971 34200.00000 0 -10370947.692 3411271.461 -23027699.758 10 0 60971 35100.00000 0 -10603351.435 561424.102 -23169120.886 10 0 60971 36000.00000 0 -11046912.218 -2252528.441 -22859461.244 10 0 60971 36900.00000 0 -11685660.927 -4961140.965 -22104855.394 10 0 60971 37800.00000 0 -12491843.822 -7499470.348 -20920107.051 10 0 60971 38700.00000 0 -13427100.465 -9809535.512 -19328391.073 10 0 60971 39600.00000 0 -14444106.313 -11842483.624 -17360791.951 10 0 60971 40500.00000 0 -15488609.996 -13560373.260 -15055688.398 10 0 60971 41400.00000 0 -16501778.656 -14937501.626 -12457996.633 10 0 60971 42300.00000 0 -17422751.867 -15961222.100 -9618287.695 10 0 60971 43200.00000 0 -18191295.951 -16632220.003 -6591796.539 10 0 60971 44100.00000 0 -18750446.528 -16964237.243 -3437342.736 10 0 60971 45000.00000 0 -19049027.780 -16983259.628 -216184.291 10 0 60971 45900.00000 0 -19043942.374 -16726203.102 3009172.768 10 0 60971 46800.00000 0 -18702135.844 -16239156.005 6176185.655 10 0 60971 47700.00000 0 -18002153.150 -15575252.831 9223483.359 10 0 60971 48600.00000 0 -16935222.369 -14792269.977 12092049.206 10 0 60971 49500.00000 0 -15505820.322 -13950045.229 14726355.004 10 0 60971 50400.00000 0 -13731696.655 -13107829.604 17075425.517 10 0 60971 51300.00000 0 -11643355.194 -12321682.525 19093813.640 10 0 60971 52200.00000 0 -9283013.839 -11642019.068 20742468.573 10 0 60971 53100.00000 0 -6703085.529 -11111411.370 21989481.363 10 0 60971 54000.00000 0 -3964242.301 -10762735.505 22810694.590 10 0 60971 54900.00000 0 -1133141.322 -10617740.739 23190165.379 10 0 60971 55800.00000 0 1720094.465 -10686100.606 23120473.441 10 0 60971 56700.00000 0 4524538.574 -10964985.439 22602868.498 10 0 60971 57600.00000 0 7211157.623 -11439174.597 21647254.044 10 0 60971 58500.00000 0 9715432.357 -12081704.468 20272007.166 10 0 60971 59400.00000 0 11979795.784 -12855026.188 18503636.840 10 0 60971 60300.00000 0 13955788.321 -13712625.915 16376286.013 10 0 60971 61200.00000 0 15605840.937 -14601041.006 13931085.551 10 0 60971 62100.00000 0 16904612.289 -15462188.656 11215371.063 10 0 60971 63000.00000 0 17839823.901 -16235909.969 8281776.337 10 0 60971 63900.00000 0 18412558.073 -16862622.770 5187219.892 10 0 60971 64800.00000 0 18637005.503 -17285971.259 1991803.579 10 0 60971 65700.00000 0 18539672.754 -17455359.975 -1242355.656 10 0 60971 66600.00000 0 18158082.561 -17328263.917 -4452337.896 10 0 60971 67500.00000 0 17539021.697 -16872215.546 -7575652.081 10 0 60971 68400.00000 0 16736410.557 -16066382.803 -10551462.599 10 0 60971 69300.00000 0 15808885.040 -14902669.459 -13321785.539 10 0 60971 70200.00000 0 14817193.778 -13386289.300 -15832630.045 10 0 60971 71100.00000 0 13821521.766 -11535788.151 -18035061.347 10 0 60971 72000.00000 0 12878854.678 -9382511.255 -19886163.661 10 0 60971 72900.00000 0 12040496.311 -6969537.248 -21349883.421 10 0 60971 73800.00000 0 11349844.908 -4350122.663 -22397735.938 10 0 60971 74700.00000 0 10840522.887 -1585721.701 -23009361.476 10 0 60971 75600.00000 0 10534939.176 1256336.055 -23172920.038 10 0 60971 76500.00000 0 10443344.717 4105413.032 -22885317.439 10 0 60971 77400.00000 0 10563420.553 6890268.908 -22152258.743 10 0 60971 78300.00000 0 10880415.171 9541790.958 -20988128.590 10 0 60971 79200.00000 0 11367824.359 11995635.901 -19415701.346 10 0 60971 80100.00000 0 11988583.863 14194673.529 -17465687.353 10 0 60971 81000.00000 0 12696723.428 16091130.988 -15176124.747 10 0 60971 81900.00000 0 13439411.387 17648349.397 -12591629.278 10 0 60971 82800.00000 0 14159302.545 18842080.821 -9762517.366 10 0 60971 83700.00000 0 14797089.458 19661273.136 -6743820.034 10 0 60971 84600.00000 0 15294148.854 20108311.937 -3594207.448 10 0 60971 85500.00000 0 15595171.094 20198711.369 -374845.499 10 0 60972 0.00000 0 15650661.612 19960269.002 2851792.648 10 0 60972 900.00000 0 15419208.884 19431721.948 6023138.469 10 0 60972 1800.00000 0 14869423.538 18660962.708 9077735.504 10 0 60972 2700.00000 0 13981467.370 17702890.529 11956424.831 10 0 60972 3600.00000 0 12748108.114 16616989.587 14603481.783 10 0 60972 4500.00000 0 11175255.917 15464735.947 16967684.276 10 0 60972 5400.00000 0 9281958.919 14306941.955 19003292.779 10 0 60972 6300.00000 0 7099857.715 13201148.888 20670924.099 10 0 60972 7200.00000 0 4672120.703 12199176.239 21938303.266 10 0 60972 8100.00000 0 2051903.497 11344929.269 22780880.135 10 0 60972 9000.00000 0 -699605.070 10672555.506 23182299.802 10 0 60972 9900.00000 0 -3515470.966 10205026.471 23134718.395 10 0 60972 10800.00000 0 -6325544.077 9953203.341 22638958.465 10 0 60972 11700.00000 0 -9059125.576 9915425.439 21704500.833 10 0 60972 12600.00000 0 -11647664.786 10077638.975 20349312.427 10 0 60972 13500.00000 0 -14027375.348 10414061.262 18599512.479 10 0 60972 14400.00000 0 -16141663.305 10888353.478 16488882.153 10 0 60972 15300.00000 0 -17943266.965 11455253.853 14058225.633 10 0 60972 16200.00000 0 -19396019.777 12062603.738 11354593.458 10 0 60972 17100.00000 0 -20476162.565 12653682.214 8430381.749 10 0 60972 18000.00000 0 -21173149.832 13169751.439 5342323.651 10 0 60972 18900.00000 0 -21489915.688 13552705.446 2150391.817 10 0 60972 19800.00000 0 -21442587.520 13747710.095 -1083367.065 10 0 60972 20700.00000 0 -21059658.826 13705721.609 -4296042.838 10 0 60972 21600.00000 0 -20380655.606 13385775.742 -7425093.372 10 0 60972 22500.00000 0 -19454352.464 12756948.956 -10409572.091 10 0 60972 23400.00000 0 -18336613.918 11799906.611 -13191326.387 10 0 60972 24300.00000 0 -17087952.637 10507970.703 -15716142.322 10 0 60972 25200.00000 0 -15770908.525 8887660.028 -17934812.103 10 0 60972 26100.00000 0 -14447360.272 6958678.261 -19804102.448 10 0 60972 27000.00000 0 -13175883.821 4753348.964 -21287604.164 10 0 60972 27900.00000 0 -12009270.008 2315520.155 -22356445.904 10 0 60972 28800.00000 0 -10992306.665 -301016.360 -22989857.932 10 0 60972 29700.00000 0 -10159918.886 -3034525.110 -23175575.033 10 0 60972 30600.00000 0 -9535745.696 -5817663.120 -22910070.972 10 0 60972 31500.00000 0 -9131212.544 -8580054.532 -22198620.414 10 0 60972 32400.00000 0 -8945137.797 -11250996.254 -21055187.667 10 0 60972 33300.00000 0 -8963888.666 -13762181.880 -19502145.014 10 0 60972 34200.00000 0 -9162078.613 -16050330.465 -17569826.773 10 0 60972 35100.00000 0 -9503775.397 -18059610.988 -15295928.383 10 0 60972 36000.00000 0 -9944167.345 -19743762.116 -12724762.839 10 0 60972 36900.00000 0 -10431616.186 -21067819.761 -9906389.550 10 0 60972 37800.00000 0 -10910008.586 -22009381.615 -6895633.173 10 0 60972 38700.00000 0 -11321306.131 -22559357.399 -3751012.034 10 0 60972 39600.00000 0 -11608185.358 -22722175.177 -533597.510 10 0 60972 40500.00000 0 -11716655.910 -22515436.989 2694173.042 10 0 60972 41400.00000 0 -11598546.131 -21969040.078 5869706.533 10 0 60972 42300.00000 0 -11213751.278 -21123802.210 8931463.937 10 0 60972 43200.00000 0 -10532149.779 -20029650.167 11820146.359 10 0 60972 44100.00000 0 -9535107.086 -18743448.313 14479834.855 10 0 60972 45000.00000 0 -8216504.112 -17326558.830 16859062.574 10 0 60972 45900.00000 0 -6583247.035 -15842235.858 18911799.468 10 0 60972 46800.00000 0 -4655236.836 -14352962.224 20598331.636 10 0 60972 47700.00000 0 -2464799.169 -12917839.370 21886019.486 10 0 60972 48600.00000 0 -55597.285 -11590138.526 22749921.233 10 0 60972 49500.00000 0 2518928.200 -10415114.233 23173270.694 10 0 60972 50400.00000 0 5197529.564 -9428170.383 23147800.827 10 0 60972 51300.00000 0 7913452.447 -8653454.381 22673907.106 10 0 60972 52200.00000 0 10596973.175 -8102937.467 21760647.444 10 0 60972 53100.00000 0 13178069.606 -7776019.339 20425578.099 10 0 60972 54000.00000 0 15589116.482 -7659673.725 18694427.722 10 0 60972 54900.00000 0 17767494.760 -7729129.254 16600614.568 10 0 60972 55800.00000 0 19658007.346 -7949057.810 14184614.666 10 0 60972 56700.00000 0 21215001.125 -8275221.288 11493191.670 10 0 60972 57600.00000 0 22404106.697 -8656508.271 8578501.829 10 0 60972 58500.00000 0 23203522.648 -9037275.397 5497090.339 10 0 60972 59400.00000 0 23604789.811 -9359894.838 2308797.740 10 0 60972 60300.00000 0 23613022.104 -9567400.033 -924402.731 10 0 60972 61200.00000 0 23246583.335 -9606117.030 -4139614.031 10 0 60972 62100.00000 0 22536222.823 -9428168.891 -7274246.361 10 0 60972 63000.00000 0 21523705.744 -8993745.496 -10267245.506 10 0 60972 63900.00000 0 20259995.832 -8273040.771 -13060293.294 10 0 60972 64800.00000 0 18803067.295 -7247773.335 -15598955.569 10 0 60972 65700.00000 0 17215438.736 -5912224.208 -17833754.066 10 0 60972 66600.00000 0 15561533.853 -4273745.884 -19721140.198 10 0 60972 67500.00000 0 13904980.999 -2352719.637 -21224350.971 10 0 60972 68400.00000 0 12305966.115 -181961.482 -22314129.800 10 0 60972 69300.00000 0 10818751.116 2194399.206 -22969297.963 10 0 60972 70200.00000 0 9489462.427 4722522.072 -23177165.605 10 0 60972 71100.00000 0 8354242.554 7340872.414 -22933774.571 10 0 60972 72000.00000 0 7437841.945 9982567.873 -22243968.816 10 0 60972 72900.00000 0 6752709.385 12577957.122 -21121291.558 10 0 60972 73800.00000 0 6298617.888 15057322.937 -19587711.811 10 0 60972 74700.00000 0 6062840.278 17353596.805 -17673186.269 10 0 60972 75600.00000 0 6020865.309 19404971.994 -15415065.693 10 0 60972 76500.00000 0 6137622.355 21157306.427 -12857357.966 10 0 60972 77400.00000 0 6369161.284 22566215.630 -10049862.798 10 0 60972 78300.00000 0 6664715.035 23598769.246 -7047195.489 10 0 60972 79200.00000 0 6969056.448 24234721.413 -3907719.299 10 0 60972 80100.00000 0 7225048.738 24467224.906 -692407.706 10 0 60972 81000.00000 0 7376281.087 24303000.764 2536340.898 10 0 60972 81900.00000 0 7369677.627 23761957.917 5715912.839 10 0 60972 82800.00000 0 7157969.486 22876280.320 8784689.488 10 0 60972 83700.00000 0 6701925.685 21689021.177 11683234.994 10 0 60972 84600.00000 0 5972249.072 20252264.199 14355438.855 10 0 60972 85500.00000 0 4951057.677 18624929.511 16749591.840 10 0 60973 0.00000 0 3632889.518 16870316.333 18819375.244 10 0 60973 900.00000 0 2025187.745 15053483.908 20524746.493 10 0 60973 1800.00000 0 148247.198 13238581.737 21832702.469 10 0 60973 2700.00000 0 -1965378.612 11486236.361 22717910.661 10 0 60973 3600.00000 0 -4271984.997 9851104.701 23163194.120 10 0 60973 4500.00000 0 -6718294.201 8379693.756 23159862.725 10 0 60973 5400.00000 0 -9243440.357 7108536.393 22707884.506 10 0 60973 6300.00000 0 -11781280.905 6062798.245 21815893.627 10 0 60973 7200.00000 0 -14262940.515 5255373.151 20501034.327 10 0 60973 8100.00000 0 -16619483.766 4686504.525 18788642.848 10 0 60973 9000.00000 0 -18784607.084 4343948.522 16711772.236 10 0 60973 9900.00000 0 -20697239.055 4203672.505 14310567.665 10 0 60973 10800.00000 0 -22303941.400 4231060.074 11631502.870 10 0 60973 11700.00000 0 -23561010.502 4382572.584 8726490.984 10 0 60973 12600.00000 0 -24436191.187 4607797.771 5651885.893 10 0 60973 13500.00000 0 -24909930.174 4851799.286 2467392.638 10 0 60973 14400.00000 0 -24976115.519 5057667.860 -765092.311 10 0 60973 15300.00000 0 -24642269.809 5169165.636 -3982688.223 10 0 60973 16200.00000 0 -23929187.870 5133350.752 -7122760.679 10 0 60973 17100.00000 0 -22870033.365 4903069.616 -10124150.670 10 0 60973 18000.00000 0 -21508931.785 4439209.569 -12928377.090 10 0 60973 18900.00000 0 -19899118.956 3712614.633 -15480787.909 10 0 60973 19800.00000 0 -18100723.252 2705581.241 -17731636.394 10 0 60973 20700.00000 0 -16178275.414 1412868.839 -19637060.249 10 0 60973 21600.00000 0 -14198051.476 -157819.080 -21159943.794 10 0 60973 22500.00000 0 -12225361.226 -1985905.255 -22270645.823 10 0 60973 23400.00000 0 -10321896.807 -4038558.435 -22947578.709 10 0 60973 24300.00000 0 -8543253.173 -6271837.444 -23177627.529 10 0 60973 25200.00000 0 -6936724.436 -8632312.060 -22956401.311 10 0 60973 26100.00000 0 -5539468.251 -11059093.027 -22288311.960 10 0 60973 27000.00000 0 -4377114.347 -13486186.314 -21186479.902 10 0 60973 27900.00000 0 -3462874.330 -15845073.118 -19672468.875 10 0 60973 28800.00000 0 -2797188.553 -18067407.708 -17775855.700 10 0 60973 29700.00000 0 -2367922.951 -20087720.352 -15533644.032 10 0 60973 30600.00000 0 -2151105.528 -21846012.514 -12989534.119 10 0 60973 31500.00000 0 -2112169.442 -23290136.165 -10193063.410 10 0 60973 32400.00000 0 -2207648.303 -24377858.276 -7198635.314 10 0 60973 33300.00000 0 -2387250.421 -25078524.939 -4064455.557 10 0 60973 34200.00000 0 -2596222.973 -25374256.508 -851397.360 10 0 60973 35100.00000 0 -2777905.101 -25260624.978 2378182.117 10 0 60973 36000.00000 0 -2876361.359 -24746786.536 5561650.775 10 0 60973 36900.00000 0 -2838983.884 -23855065.130 8637312.447 10 0 60973 37800.00000 0 -2618953.347 -22620005.698 11545596.303 10 0 60973 38700.00000 0 -2177455.054 -21086937.696 14230202.161 10 0 60973 39600.00000 0 -1485557.054 -19310109.693 16639180.161 10 0 60973 40500.00000 0 -525671.479 -17350473.228 18725924.862 10 0 60973 41400.00000 0 707462.194 -15273208.268 20450065.653 10 0 60973 42300.00000 0 2206313.406 -13145092.849 21778237.420 10 0 60973 43200.00000 0 3950636.310 -11031825.520 22684717.787 10 0 60973 44100.00000 0 5908082.951 -8995410.737 23151919.622 10 0 60973 45000.00000 0 8035329.673 -7091714.641 23170730.018 10 0 60973 45900.00000 0 10279671.606 -5368291.449 22740689.580 10 0 60973 46800.00000 0 12581020.893 -3862569.594 21870008.492 10 0 60973 47700.00000 0 14874227.599 -2600472.144 20575418.491 10 0 60973 48600.00000 0 17091628.754 -1595528.239 18881862.694 10 0 60973 49500.00000 0 19165721.203 -848512.323 16822027.969 10 0 60973 50400.00000 0 21031848.218 -347626.229 14435727.405 10 0 60973 51300.00000 0 22630788.673 -69216.780 11769143.294 10 0 60973 52200.00000 0 23911140.889 21000.833 8873943.808 10 0 60973 53100.00000 0 24831401.098 -33735.097 5806289.335 10 0 60973 54000.00000 0 25361648.632 -183295.289 2625746.905 10 0 60973 54900.00000 0 25484765.997 -373019.215 -605866.583 10 0 60973 55800.00000 0 25197141.126 -546272.019 -3825689.732 10 0 60973 56700.00000 0 24508820.946 -647089.609 -6971046.623 10 0 60973 57600.00000 0 23443108.471 -622798.704 -9980676.584 10 0 60973 58500.00000 0 22035619.469 -426499.344 -12795938.581 10 0 60973 59400.00000 0 20332837.770 -19302.897 -15361965.522 10 0 60973 60300.00000 0 18390229.833 627771.043 -17628744.755 10 0 60973 61200.00000 0 16269998.049 1532321.037 -19552102.534 10 0 60973 62100.00000 0 14038567.650 2699577.406 -21094572.456 10 0 60973 63000.00000 0 11763913.331 4121946.276 -22226130.346 10 0 60973 63900.00000 0 9512838.373 5779104.417 -22924781.011 10 0 60973 64800.00000 0 7348320.756 7638641.815 -23176985.451 10 0 60973 65700.00000 0 5327037.583 9657225.547 -22977920.488 10 0 60973 66600.00000 0 3497171.288 11782236.370 -22331566.190 10 0 60973 67500.00000 0 1896588.800 13953809.503 -21250619.953 10 0 60973 68400.00000 0 551468.760 16107194.005 -19756239.549 10 0 60973 69300.00000 0 -524567.177 18175331.798 -17877620.773 10 0 60973 70200.00000 0 -1330784.474 20091548.203 -15651418.574 10 0 60973 71100.00000 0 -1879115.534 21792241.333 -13121023.535 10 0 60973 72000.00000 0 -2193400.729 23219457.766 -10335708.417 10 0 60973 72900.00000 0 -2308124.796 24323246.929 -7349661.967 10 0 60973 73800.00000 0 -2266703.949 25063696.075 -4220929.324 10 0 60973 74700.00000 0 -2119397.764 25412561.244 -1010280.172 10 0 60973 75600.00000 0 -1920935.455 25354426.809 2219972.951 10 0 60973 76500.00000 0 -1727957.866 24887346.034 5407182.946 10 0 60973 77400.00000 0 -1596383.886 24022936.895 8489579.474 10 0 60973 78300.00000 0 -1578812.742 22785930.214 11407459.948 10 0 60973 79200.00000 0 -1722071.768 21213189.877 14104337.504 10 0 60973 80100.00000 0 -2065012.767 19352246.727 16528024.387 10 0 60973 81000.00000 0 -2636649.391 17259407.624 18631630.685 10 0 60973 81900.00000 0 -3454713.605 14997518.380 20374460.224 10 0 60973 82800.00000 0 -4524691.715 12633473.235 21722787.454 10 0 60973 83700.00000 0 -5839380.630 10235573.535 22650501.523 10 0 60973 84600.00000 0 -7378983.555 7870844.175 23139606.091 10 0 60973 85500.00000 0 -9111742.210 5602417.824 23180566.009 10 0 60974 0.00000 0 -10995080.474 3487094.252 22772494.585 10 0 60974 900.00000 0 -12977214.641 1573173.506 21923177.500 10 0 60974 1800.00000 0 -14999162.594 -101345.425 20648933.026 10 0 60974 2700.00000 0 -16997073.526 -1510130.315 18974309.627 10 0 60974 3600.00000 0 -18904780.468 -2639386.645 16931625.941 10 0 60974 4500.00000 0 -20656471.612 -3488198.868 14560360.433 10 0 60974 5400.00000 0 -22189369.746 -4068327.515 11906401.007 10 0 60974 6300.00000 0 -23446308.238 -4403470.421 9021167.600 10 0 60974 7200.00000 0 -24378095.558 -4528018.719 5960623.610 10 0 60974 8100.00000 0 -24945568.503 -4485359.730 2784194.449 10 0 60974 9000.00000 0 -25121246.732 -4325798.181 -446386.185 10 0 60974 9900.00000 0 -24890517.592 -4104183.777 -3668279.805 10 0 60974 10800.00000 0 -24252299.738 -3877346.040 -6818772.460 10 0 60974 11700.00000 0 -23219156.038 -3701445.960 -9836505.106 10 0 60974 12600.00000 0 -21816849.613 -3629357.940 -12662679.854 10 0 60974 13500.00000 0 -20083360.645 -3708194.520 -15242217.340 10 0 60974 14400.00000 0 -18067404.671 -3977080.430 -17524841.418 10 0 60974 15300.00000 0 -15826514.405 -4465271.940 -19466068.872 10 0 60974 16200.00000 0 -13424765.781 -5190702.686 -21028084.026 10 0 60974 17100.00000 0 -10930243.926 -6159018.858 -22180480.589 10 0 60974 18000.00000 0 -8412355.789 -7363145.632 -22900856.016 10 0 60974 18900.00000 0 -5939102.341 -8783403.990 -23175246.831 10 0 60974 19800.00000 0 -3574424.679 -10388173.566 -22998396.667 10 0 60974 20700.00000 0 -1375734.973 -12135073.890 -22373852.250 10 0 60974 21600.00000 0 608265.022 -13972614.470 -21313886.026 10 0 60974 22500.00000 0 2339387.601 -15842244.262 -19839247.532 10 0 60974 23400.00000 0 3791310.782 -17680714.287 -17978749.017 10 0 60974 24300.00000 0 4950423.196 -19422653.999 -15768694.020 10 0 60974 25200.00000 0 5816128.881 -21003253.111 -13252160.637 10 0 60974 26100.00000 0 6400601.450 -22360936.217 -10478154.073 10 0 60974 27000.00000 0 6728000.336 -23439918.037 -7500645.541 10 0 60974 27900.00000 0 6833184.397 -24192532.280 -4377516.771 10 0 60974 28800.00000 0 6759979.161 -24581236.794 -1169431.186 10 0 60974 29700.00000 0 6559072.592 -24580211.462 2061345.896 10 0 60974 30600.00000 0 6285629.574 -24176482.577 5252154.820 10 0 60974 31500.00000 0 5996726.767 -23370527.347 8341153.344 10 0 60974 32400.00000 0 5748716.661 -22176334.053 11268509.179 10 0 60974 33300.00000 0 5594632.151 -20620916.029 13977550.632 10 0 60974 34200.00000 0 5581740.888 -18743300.319 16415853.659 10 0 60974 35100.00000 0 5749351.982 -16593033.436 18536245.221 10 0 60974 36000.00000 0 6126966.901 -14228266.368 20297704.637 10 0 60974 36900.00000 0 6732851.833 -11713498.034 21666146.679 10 0 60974 37800.00000 0 7573091.290 -9117070.066 22615072.458 10 0 60974 38700.00000 0 8641162.784 -6508515.714 23126076.578 10 0 60974 39600.00000 0 9918051.029 -3955871.396 23189201.509 10 0 60974 40500.00000 0 11372897.931 -1523060.806 22803132.761 10 0 60974 41400.00000 0 12964162.716 732541.533 21975231.046 10 0 60974 42300.00000 0 14641245.477 2762267.588 20721400.334 10 0 60974 43200.00000 0 16346508.259 4527945.585 19065793.460 10 0 60974 44100.00000 0 18017611.144 6003248.684 17040359.688 10 0 60974 45000.00000 0 19590067.304 7174546.803 14684241.547 10 0 60974 45900.00000 0 20999911.388 8041226.239 12043031.037 10 0 60974 46800.00000 0 22186370.212 8615463.573 9167898.139 10 0 60974 47700.00000 0 23094423.851 8921463.073 6114607.299 10 0 60974 48600.00000 0 23677149.114 8994189.346 2942440.112 10 0 60974 49500.00000 0 23897745.876 8877648.448 -286955.347 10 0 60974 50400.00000 0 23731159.497 8622790.000 -3510766.086 10 0 60974 51300.00000 0 23165229.309 8285119.349 -6666242.803 10 0 60974 52200.00000 0 22201312.965 7922121.493 -9691930.775 10 0 60974 53100.00000 0 20854358.619 7590606.923 -12528877.874 10 0 60974 54000.00000 0 19152420.427 7344093.096 -15121794.927 10 0 60974 54900.00000 0 17135636.647 7230334.001 -17420144.563 10 0 60974 55800.00000 0 14854712.576 7289103.930 -19379136.151 10 0 60974 56700.00000 0 12368971.752 7550330.787 -20960606.572 10 0 60974 57600.00000 0 9744057.133 8032659.133 -22133769.042 10 0 60974 58500.00000 0 7049378.838 8742504.771 -22875815.076 10 0 60974 59400.00000 0 4355415.529 9673641.494 -23172357.879 10 0 60974 60300.00000 0 1730982.497 10807337.898 -23017708.766 10 0 60974 61200.00000 0 -759419.376 12113038.640 -22414981.657 10 0 60974 62100.00000 0 -3058063.351 13549561.359 -21376024.175 10 0 60974 63000.00000 0 -5116163.256 15066758.680 -19921177.310 10 0 60974 63900.00000 0 -6895657.139 16607574.973 -18078868.989 10 0 60974 64800.00000 0 -8370535.171 18110411.005 -15885050.110 10 0 60974 65700.00000 0 -9527658.089 19511696.652 -13382484.618 10 0 60974 66600.00000 0 -10367034.071 20748563.204 -10619908.112 10 0 60974 67500.00000 0 -10901544.745 21761502.717 -7651071.891 10 0 60974 68400.00000 0 -11156134.257 22496902.596 -4533691.621 10 0 60974 69300.00000 0 -11166497.728 22909349.002 -1328321.593 10 0 60974 70200.00000 0 -10977326.408 22963602.610 1902823.115 10 0 60974 71100.00000 0 -10640185.176 22636164.208 5097073.408 10 0 60974 72000.00000 0 -10211113.155 21916364.983 8192518.283 10 0 60974 72900.00000 0 -9748049.471 20806936.381 11129198.883 10 0 60974 73800.00000 0 -9308193.035 19324036.194 13850261.722 10 0 60974 74700.00000 0 -8945407.568 17496730.192 16303049.376 10 0 60974 75600.00000 0 -8707780.773 15365951.045 18440108.392 10 0 60974 76500.00000 0 -8635439.735 12982977.769 20220096.072 10 0 60974 77400.00000 0 -8758713.747 10407498.433 21608569.710 10 0 60974 78300.00000 0 -9096721.163 7705335.713 22578644.264 10 0 60974 79200.00000 0 -9656439.256 4945928.435 23111506.783 10 0 60974 80100.00000 0 -10432296.177 2199672.037 23196778.445 10 0 60974 81000.00000 0 -11406302.638 -464773.498 22832717.625 10 0 60974 81900.00000 0 -12548718.792 -2983098.406 22026260.098 10 0 60974 82800.00000 0 -13819229.809 -5297773.751 20792895.111 10 0 60974 83700.00000 0 -15168582.592 -7360198.422 19156378.868 10 0 60974 84600.00000 0 -16540616.914 -9132474.381 17148289.720 10 0 60974 85500.00000 0 -17874607.558 -10588736.916 14807432.192 99